Columbus AFB, MS

5:24 AM CDT on April 24, 2017 (GMT -0500)
Columbus Air Force Base

Weather History for KCBM - May, 2013

Change the Weather History Date:

Tuesday, May 14, 2013

  Actual Average Record
Temperature  
Mean Temperature 68 °F -  
Max Temperature 85 °F 80 °F 88 °F (2007)
Min Temperature 51 °F 58 °F 46 °F (2002)
Cooling Degree Days 3    
Growing Degree Days 18 (Base 50)    
Moisture  
Dew Point 53 °F    
Average Humidity 63    
Maximum Humidity 95    
Minimum Humidity 31    
Precipitation  
Precipitation 0.00 in - - ()
Sea Level Pressure  
Sea Level Pressure 30.17 in    
Wind  
Wind Speed 5 mph (SSW)    
Max Wind Speed 13 mph    
Max Gust Speed 17 mph    
Visibility 10 miles    
Events      
Averages and records for this station are not official NWS values.
T = Trace of Precipitation, MM = Missing Value Source: NWS Daily Summary

Daily Weather History Graph

Daily Weather History Graph

Search for Another Location

Airport or City:

Trip Planner

Search our weather history database for the weather conditions in past years. The results will help you decide how hot, cold, wet, or windy it might be!

Date:

Astronomy

May. 14, 2013 Rise Set
Actual Time 5:53 AM CDT 7:47 PM CDT
Civil Twilight 5:26 AM CDT 8:14 PM CDT
Nautical Twilight 4:52 AM CDT 8:47 PM CDT
Astronomical Twilight 4:17 AM CDT 9:23 PM CDT
Moon 9:32 AM CDT (5/14) 11:36 PM CDT (5/14)
Length of Visible Light 14h 48m
Length of Day
13h 53m
Waxing Crescent, 19% of the Moon is Illuminated
May 14
Waxing Crescent
May 17
First Quarter
May 24
Full
May 31
Last Quarter
Jun 8
New

Hourly Weather History & Observations

Time (CDT) Temp. Heat Index Dew Point Humidity Pressure Visibility Wind Dir Wind Speed Gust Speed Precip Events Conditions
12:58 AM 53.4 °F - 50.0 °F 88% 30.20 in 10.0 mi SE 4.6 mph - N/A   Clear
1:58 AM 53.6 °F - 50.4 °F 89% 30.19 in 10.0 mi ESE 1.2 mph - N/A   Clear
2:58 AM 52.3 °F - 49.5 °F 90% 30.19 in 10.0 mi SE 2.3 mph - N/A   Clear
3:58 AM 51.1 °F - 49.6 °F 95% 30.18 in 10.0 mi SE 3.5 mph - N/A   Clear
4:58 AM 51.6 °F - 49.8 °F 94% 30.19 in 10.0 mi SE 2.3 mph - N/A   Clear
5:58 AM 51.6 °F - 50.0 °F 94% 30.20 in 10.0 mi SE 4.6 mph - N/A   Clear
6:58 AM 54.9 °F - 52.0 °F 90% 30.22 in 10.0 mi ESE 1.2 mph - N/A   Clear
7:58 AM 62.6 °F - 53.4 °F 72% 30.23 in 10.0 mi Calm Calm - N/A   Clear
8:58 AM 69.4 °F - 54.0 °F 58% 30.23 in 10.0 mi WSW 10.4 mph - N/A   Clear
9:58 AM 73.8 °F - 54.9 °F 52% 30.23 in 10.0 mi West 10.4 mph - N/A   Clear
10:58 AM 78.3 °F - 54.1 °F 43% 30.23 in 10.0 mi SW 8.1 mph - N/A   Clear
11:58 AM 80.4 °F 80.4 °F 55.2 °F 42% 30.22 in 10.0 mi SW 10.4 mph 16.1 mph N/A   Clear
12:58 PM 81.7 °F 81.1 °F 54.3 °F 39% 30.19 in 10.0 mi WSW 9.2 mph 17.3 mph N/A   Clear
1:58 PM 83.5 °F 82.6 °F 55.8 °F 39% 30.17 in 10.0 mi SSW 9.2 mph - N/A   Clear
2:58 PM 84.4 °F 82.9 °F 54.1 °F 35% 30.15 in 10.0 mi WSW 8.1 mph - N/A   Clear
3:58 PM 85.5 °F - 52.3 °F 32% 30.13 in 10.0 mi WSW 12.7 mph - N/A   Clear
4:58 PM 85.5 °F - 52.7 °F 32% 30.12 in 10.0 mi WSW 12.7 mph - N/A   Clear
5:58 PM 84.7 °F - 51.1 °F 31% 30.11 in 10.0 mi WSW 8.1 mph - N/A   Clear
6:58 PM 81.1 °F 80.8 °F 54.5 °F 40% 30.10 in 10.0 mi Calm Calm - N/A   Clear
7:58 PM 73.4 °F - 56.7 °F 56% 30.11 in 10.0 mi Calm Calm - N/A   Clear
8:58 PM 66.2 °F - 57.0 °F 72% 30.12 in 10.0 mi Calm Calm - N/A   Clear
9:58 PM 65.5 °F - 56.5 °F 73% 30.13 in 10.0 mi Calm Calm - N/A   Clear
10:58 PM 62.2 °F - 55.9 °F 80% 30.13 in 10.0 mi Calm Calm - N/A   Clear
11:58 PM 61.0 °F - 55.6 °F 82% 30.13 in 10.0 mi Calm Calm - N/A   Clear